TIME,DELAY(SENSOR),PRES,T(CTD),SAL,OXYGEN,RAWTEMP,T(OPTODE),TCPHASE,TURBIDITY,TURBIDITY_GAIN,FLUOR,BETA,CDOM,ED411.5,ED443.8,ED489.6,PAR,COMP,TILT,TILTY(TILT),CHECK
1340615634,6469,257.2900085449219000,5.8940000534057620,34.8968009948730500,329.9525146484375000,624.4926757812500000,5.8756852149963380,33.0004692077636700,16,3,48,106,62,2147638984,2147395514,2147281416,2148318115,2912,2,-4,23936
1340615696,6468,253.7599945068359400,5.9057998657226560,34.8953018188476560,330.2492065429687500,624.1577758789062000,5.8864779472351070,32.9841613769531250,15,3,49,107,64,2147637037,2147395917,2147279455,2148320141,2733,1,-4,51954
1340615758,6468,250.3300018310547000,5.9065999984741210,34.8921012878418000,333.3575134277344000,624.2213745117188000,5.8844299316406250,32.8763313293457000,16,3,48,108,62,2147636918,2147395761,2147281183,2148316648,2556,1,-4,15540
1340615820,6469,246.9600067138672000,5.9117999076843260,34.8881988525390600,333.3203125000000000,623.9666748046875000,5.8926367759704590,32.8732109069824200,16,3,48,108,63,2147636913,2147392260,2147283483,2148319044,2183,2,-4,12707
1340615882,6468,243.6100006103515600,5.9045000076293945,34.8829994201660160,332.1401062011719000,624.1375732421875000,5.8871312141418460,32.9174613952636700,16,3,48,107,63,2147634985,2147394975,2147281891,2148318884,1905,0,-4,21505
1340615944,6504,240.3099975585937500,5.9060997962951660,34.8825988769531250,331.1528930664062500,624.1184082031250000,5.8877491950988770,32.9518699645996100,23,3,48,112,64,2147635300,2147393864,2147283222,2148318669,1793,0,-4,65018
1340616006,6467,237.1300048828125000,5.9070000648498535,34.8816986083984400,330.2008972167969000,624.0921020507812000,5.8885970115661620,32.9848594665527340,16,3,47,111,64,2147636744,2147392315,2147282042,2148317915,1495,2,-4,23326
1340616068,6468,233.9400024414062500,5.9165000915527340,34.8768997192382800,325.2715148925781000,623.8262939453125000,5.8971629142761230,33.1557197570800800,16,3,49,111,64,2147638490,2147393915,2147278331,2148318527,1210,2,-4,20822
1340616130,6469,230.8800048828125000,5.9253001213073730,34.8759002685546900,326.1471862792969000,623.5588989257812000,5.9057807922363280,33.1194610595703100,16,3,48,108,64,2147637530,2147393443,2147284251,2148318980,922,0,-4,36379
1340616192,6468,227.8899993896484400,5.9295997619628910,34.8736991882324200,329.7333068847656000,623.3950195312500000,5.9110641479492190,32.9891014099121100,16,3,48,110,64,2147634988,2147396012,2147282998,2148317471,430,0,-4,33021
1340616256,6467,224.8600006103515600,5.9289999008178710,34.8692016601562500,332.4594116210937500,623.3325805664062000,5.9130740165710450,32.8919296264648440,16,3,48,110,64,2147636401,2147394249,2147280241,2148320232,121,2,-4,45798
1340616318,6468,222.0200042724609400,5.9464001655578610,34.8689002990722660,334.2156066894531000,622.9124145507812000,5.9266152381896970,32.8233299255371100,16,3,49,109,63,2147638459,2147392050,2147278394,2148318715,3306,0,-4,11508
1340616382,6469,219.1499938964843800,5.9542999267578125,34.8666992187500000,334.5960998535156000,622.6912841796875000,5.9337348937988280,32.8062705993652340,16,3,50,110,64,2147634966,2147393348,2147278911,2148318509,3078,2,-4,10369
1340616447,6467,216.3099975585937500,5.9702000617980960,34.8638000488281250,335.0133056640625000,622.1884765625000000,5.9499320983886720,32.7828407287597660,16,3,49,109,64,2147635867,2147393119,2147280579,2148316566,2535,0,-4,5753
1340616511,6468,213.5099945068359400,5.9710998535156250,34.8602981567382800,335.9377136230469000,622.1353759765625000,5.9516448974609375,32.7499809265136700,16,3,48,109,64,2147638010,2147392429,2147280328,2148316269,2306,2,-4,15403
1340616573,6467,210.7599945068359400,5.9741001129150390,34.8587989807128900,336.7590026855469000,621.9968261718750000,5.9561100006103520,32.7192916870117200,16,3,48,111,63,2147640689,2147393737,2147280383,2148319272,2243,0,-4,11424
1340616637,6469,207.8999938964843800,5.9828000068664550,34.8566017150878900,337.2763061523437500,621.7504882812500000,5.9640388488769530,32.6969795227050800,16,3,48,109,64,2147638408,2147394682,2147277348,2148317983,2047,0,-4,9052
1340616699,6468,205.0500030517578000,6.0065999031066895,34.8539009094238300,337.7716064453125000,621.1456298828125000,5.9835190773010250,32.6695289611816400,16,3,48,108,64,2147635240,2147395368,2147278294,2148319162,1843,0,-4,2566
1340616763,6467,202.0700073242187500,6.0160999298095700,34.8521003723144500,338.5386047363281000,620.7617797851562000,5.9958801269531250,32.6363792419433600,16,3,48,112,64,2147638395,2147395734,2147279460,2148316699,1482,0,-4,43261
1340616825,6469,199.1100006103515600,6.0251998901367190,34.8501014709472660,338.9137878417969000,620.4680175781250000,6.0053372383117680,32.6182403564453100,16,3,49,109,62,2147635986,2147393558,2147280200,2148316250,1215,0,-4,35228
1340616889,6469,196.0500030517578000,6.0233998298645020,34.8466987609863300,339.1777954101562500,620.4011840820312000,6.0074858665466310,32.6082115173339840,16,3,48,110,63,2147635437,2147392772,2147278536,2148317618,850,0,-4,17090
1340616951,6469,193.1000061035156200,6.0461001396179200,34.8473014831543000,339.4363098144531000,619.8107299804688000,6.0264968872070310,32.5889396667480500,16,3,48,114,62,2147636626,2147392570,2147280269,2148317942,347,1,-4,62152
1340617015,6468,190.1100006103515600,6.0566000938415530,34.8456001281738300,339.8172912597656000,619.4647827148438000,6.0376281738281250,32.5700607299804700,16,3,48,112,64,2147638276,2147392173,2147281681,2148320643,3417,0,-4,9791
1340617077,6467,187.2299957275390600,6.0715999603271480,34.8432006835937500,340.5741882324219000,619.1032714843750000,6.0492630004882810,32.5379409790039060,16,3,49,116,63,2147637421,2147395716,2147278710,2148317137,2935,0,-4,29284
1340617141,6469,184.3600006103515600,6.0773000717163090,34.8415985107421900,341.6625061035156000,618.8342285156250000,6.0579218864440920,32.4964790344238300,15,3,49,116,62,2147636982,2147394029,2147278358,2148318290,2917,0,-4,27826
1340617203,6466,181.6799926757812500,6.0817999839782715,34.8406982421875000,342.2969055175781000,618.6649780273438000,6.0633659362792970,32.4717712402343750,16,3,48,114,62,2147635355,2147392333,2147279331,2148319546,2637,1,-4,11635
1340617267,6467,179.0099945068359400,6.0815000534057620,34.8409004211425800,342.9312133789062500,618.6353149414062000,6.0643219947814940,32.4498901367187500,16,3,49,117,63,2147639066,2147392712,2147281193,2148316420,2378,0,-4,63356
1340617329,6466,176.4799957275390600,6.0988998413085940,34.8376007080078100,342.9301147460937500,618.1804809570312000,6.0789570808410645,32.4420394897460940,16,3,48,114,63,2147636744,2147395785,2147280374,2148318230,1960,0,-4,56624
1340617393,6504,174.0599975585937500,6.1147999763488770,34.8366012573242200,343.3799133300781000,617.7153930664062000,6.0939159393310550,32.4190101623535160,16,3,49,116,62,2147634980,2147391291,2147277132,2148319560,1787,0,-4,11946
1340617455,6468,171.8600006103515600,6.1212000846862790,34.8366012573242200,344.0401000976562500,617.4536743164062000,6.1023349761962890,32.3924484252929700,16,3,49,115,62,2147636721,2147392484,2147276498,2148318993,1752,0,-4,24936
1340617547,6467,168.0200042724609400,6.1368999481201170,34.8348999023437500,344.9399108886719000,616.9921875000000000,6.1171760559082030,32.3540000915527340,16,3,48,115,62,2147635606,2147393572,2147279030,2148317599,1237,2,-4,30214
1340617609,6468,164.5800018310547000,6.1511998176574710,34.8348007202148440,345.1853027343750000,616.5371704101562000,6.1318092346191410,32.3377189636230500,16,3,49,118,62,2147639103,2147393215,2147280630,2148318120,938,2,-4,26651
1340617673,6468,161.1499938964843800,6.1543002128601070,34.8330993652343750,346.5965881347656000,616.3787841796875000,6.1368999481201170,32.2881813049316400,16,3,50,117,62,2147637353,2147394870,2147281074,2148318930,700,0,-4,6936
1340617735,6468,157.9700012207031200,6.1729001998901370,34.8310012817382800,347.6158142089844000,615.8427734375000000,6.1541328430175780,32.2448005676269500,26,3,48,119,62,2147639336,2147395702,2147280164,2148317119,130,0,-4,39409
1340617799,6469,154.7799987792968800,6.1841998100280760,34.8261985778808600,348.5885925292969000,615.6041870117188000,6.1618018150329590,32.2086791992187500,16,3,50,116,62,2147638705,2147395935,2147279405,2148317970,3318,1,-4,13123
1340617861,6470,151.7500000000000000,6.1912999153137210,34.8263015747070300,348.0906982421875000,615.2789916992188000,6.1722559928894040,32.2196617126464840,16,3,49,117,62,2147635931,2147396836,2147281302,2148317851,2598,0,-4,52857
1340617925,6467,148.6000061035156200,6.1986999511718750,34.8224983215332000,346.3233032226562500,615.0305786132812000,6.1802411079406740,32.2738304138183600,16,3,50,118,62,2147636392,2147394143,2147278742,2148317915,2332,0,-4,45407
1340617987,6469,145.5700073242187500,6.2048001289367680,34.8182983398437500,342.1806030273437500,614.5053710937500000,6.1971192359924320,32.4038696289062500,16,3,49,112,64,2147635926,2147391496,2147278966,2148318582,2005,0,-4,9462
1340618051,6468,142.4400024414062500,6.2311000823974610,34.8158988952636700,339.0231933593750000,613.9733886718750000,6.2142109870910645,32.5017509460449200,16,3,49,119,62,2147640744,2147393791,2147276534,2148317275,1792,0,-4,36128
1340618113,6469,139.3600006103515600,6.2076001167297360,34.8069000244140600,344.4461975097656000,614.4470214843750000,6.1989970207214355,32.3265419006347660,16,3,50,114,62,2147637146,2147392927,2147282220,2148316502,1393,2,-4,33191
1340618177,6466,136.0899963378906200,6.1855001449584960,34.8017005920410160,337.5910034179687500,615.1774291992188000,6.1755218505859375,32.5714797973632800,15,3,50,116,64,2147639186,2147392799,2147282628,2148317558,1031,1,-4,48168
1340618239,6469,132.8300018310547000,6.2490000724792480,34.8018989562988300,336.1901855468750000,613.8333740234375000,6.2187118530273440,32.5965499877929700,15,3,50,114,62,2147637288,2147393503,2147280616,2148316803,615,2,-4,64692
1340618303,6467,129.3500061035156200,6.2918000221252440,34.8007011413574200,344.4263916015625000,612.3134155273438000,6.2675318717956540,32.2903900146484400,15,3,50,118,62,2147637064,2147396040,2147280192,2148318363,111,2,-4,5573
1340618365,6467,125.8300018310546900,6.3069000244140625,34.7998008728027340,349.2990112304687500,611.6937255859375000,6.2874321937561035,32.1180000305175800,16,3,50,118,62,2147636168,2147395967,2147283538,2148318956,65,2,-4,42884
1340618429,6467,122.0899963378906200,6.3143000602722170,34.7975997924804700,350.9443054199219000,611.4368286132812000,6.2956790924072270,32.0594596862793000,16,3,53,120,62,2147636145,2147396434,2147285068,2148316666,3224,0,-4,42392
1340618491,6466,118.4400024414062500,6.3194999694824220,34.7932014465332000,351.3175964355469000,611.2454833984375000,6.3018188476562500,32.0438804626464840,15,3,52,122,62,2147638066,2147395464,2147284415,2148318682,3052,0,-4,38340
1340618555,6467,114.5699996948242200,6.3387999534606930,34.7895011901855500,351.6322937011719000,610.6890869140625000,6.3196811676025390,32.0242118835449200,16,3,53,121,62,2147636790,2147392428,2147286788,2148317430,2754,0,-4,61287
1340618617,6466,110.8899993896484400,6.3411998748779300,34.7893981933593750,352.0044860839844000,610.5531005859375000,6.3240451812744140,32.0096702575683600,16,3,54,123,62,2147634596,2147395506,2147289288,2148320246,2628,0,-4,63343
1340618681,6468,107.1699981689453100,6.3604001998901370,34.7868995666503900,352.5328979492187500,610.0161132812500000,6.3412799835205080,31.9832191467285160,16,3,54,126,62,2147633956,2147396374,2147291954,2148320726,2346,0,-4,34862
1340618743,6468,103.5699996948242200,6.3832998275756840,34.7834014892578100,353.0685119628906000,609.2932739257812000,6.3644728660583500,31.9535694122314450,16,3,55,128,62,2147634527,2147397385,2147293010,2148320927,2074,0,-4,20159
1340618807,6467,99.9499969482421900,6.4043998718261720,34.7811012268066400,353.3635864257812500,608.6627197265625000,6.3847031593322750,31.9331398010253900,15,3,58,124,62,2147636104,2147397933,2147295770,2148322029,1994,1,-4,29375
1340618869,6467,96.4300003051757800,6.4166002273559570,34.7779998779296900,352.0270080566406000,608.2755737304688000,6.3971161842346190,31.9701499938964840,16,3,58,120,63,2147635675,2147396502,2147298806,2148320950,1747,0,-4,61279
1340618933,6469,92.8099975585937500,6.4372000694274900,34.7751998901367200,351.5921020507812500,607.6685791015625000,6.4165821075439450,31.9738197326660160,16,3,60,124,62,2147636772,2147397864,2147304584,2148321457,1515,2,-4,20842
1340618995,6468,89.2600021362304700,6.4598999023437500,34.7734985351562500,352.2962036132812500,606.9746704101562000,6.4388308525085450,31.9392604827880860,16,3,62,123,62,2147636845,2147395583,2147311611,2148325759,1062,0,-4,55617
1340619059,6468,85.5699996948242200,6.4876999855041500,34.7745018005371100,353.7820129394531000,606.1146240234375000,6.4664058685302730,31.8764305114746100,16,3,68,131,62,2147638632,2147398929,2147323410,2148325997,839,0,-4,29524
1340619121,6469,82.0500030517578100,6.5002999305725100,34.7720985412597660,355.3923034667969000,605.6655883789062000,6.4807949066162110,31.8165092468261720,16,3,70,132,62,2147637037,2147398760,2147337201,2148330824,612,0,-4,37653
1340619185,6468,78.5000000000000000,6.5185999870300290,34.7705993652343750,355.9681091308594000,605.0933227539062000,6.4991359710693360,31.7884197235107420,15,3,74,136,62,2147636694,2147401115,2147353828,2148337229,616,1,-4,34510
1340619247,6468,75.2600021362304700,6.5447001457214355,34.7685012817382800,356.5960998535156000,604.3336791992188000,6.5234718322753910,31.7551898956298830,16,3,78,139,62,2147643912,2147406815,2147374637,2148341494,56,0,-4,41926
1340619311,6469,72.1900024414062500,6.5798001289367680,34.7659988403320300,356.4353942871094000,603.1804199218750000,6.5604109764099120,31.7408905029296880,16,3,85,142,62,2147638157,2147411542,2147391533,2148345160,3536,0,-4,1319
1340619373,6469,69.6699981689453100,6.6324000358581540,34.7611007690429700,355.9732971191406000,601.6762695312500000,6.6085638999938965,31.7303390502929700,15,3,90,139,62,2147638650,2147409028,2147400347,2148347762,3533,0,-4,20715
1340619437,6467,67.5100021362304700,6.6452999114990230,34.7596015930175800,355.5025939941406000,601.1342163085938000,6.6259188652038570,31.7365608215332030,15,3,96,139,62,2147645700,2147410866,2147399976,2148350783,2944,0,-4,32978
1340619499,6469,65.7099990844726600,6.6725997924804690,34.7593002319335940,354.9303894042969000,600.4453125000000000,6.6479640007019040,31.7433300018310550,16,3,98,138,62,2147638097,2147412045,2147405608,2148355990,2549,2,-4,26455
1340619587,6470,62.9300003051757800,6.6911997795104980,34.7583007812500000,354.3223876953125000,599.6577148437500000,6.6731610298156740,31.7494392395019530,15,3,96,141,62,2147641380,2147410966,2147408378,2148358111,2332,0,-4,58861
1340619649,6468,60.2900009155273440,6.7575001716613770,34.7547988891601560,353.8409118652344000,597.1608276367188000,6.7530040740966800,31.7233505249023440,14,3,113,151,63,2147640776,2147411729,2147417375,2148362678,2159,0,-4,36627
1340619740,6469,55.8600006103515600,6.9345998764038090,34.7528991699218750,354.3393859863281000,592.1968994140625000,6.9115657806396480,31.6238594055175780,19,3,138,165,62,2147644611,2147413700,2147417786,2148375908,1351,0,-4,3530
1340619802,6470,52.1100006103515600,7.1515002250671390,34.7528991699218750,353.8378906250000000,585.6572265625000000,7.1201128959655760,31.5315303802490230,21,3,157,183,62,2147641984,2147416081,2147432776,2148387930,1331,0,-4,24826
1340619866,6468,48.0299987792968750,7.6477999687194820,34.7541999816894500,349.6420898437500000,568.7191772460938000,7.6584420204162600,31.3895702362060550,22,3,184,199,63,2147648950,2147421933,2147470536,2148411853,1327,0,-4,60387
1340619928,6470,44.2900009155273440,8.1480998992919920,34.7515983581543000,349.4212951660156000,554.6027221679688000,8.1051731109619140,31.1695194244384770,26,3,186,224,63,2147651720,2147432164,2147522299,2148448466,757,0,-4,50604
1340620015,6470,40.2599983215332000,9.0272998809814450,34.7391014099121100,348.0221862792969000,529.8176269531250000,8.8855304718017580,30.8240509033203120,43,3,309,282,62,2147663876,2147448310,2147594426,2148503327,3340,0,-4,54070
1340620077,6469,38.9000015258789060,9.3063001632690430,34.7392005920410160,347.4349060058594000,519.3461303710938000,9.2137708663940430,30.6812591552734380,45,3,466,387,64,2147674125,2147461014,2147661051,2148543716,2962,0,-4,57995
1340620163,6472,36.5800018310546900,9.7540998458862300,34.7307014465332000,346.2077026367187500,503.8627014160156000,9.6976165771484380,30.4849205017089840,149,3,2654,878,64,2147711194,2147531501,2147956694,2148682362,2391,0,-4,23161
1340620225,6473,34.1699981689453100,9.9858999252319340,34.7322998046875000,350.1017150878906000,496.1983032226562500,9.9364919662475590,30.2446899414062500,147,3,1840,772,65,2147782682,2147666258,2148449421,2148892155,3009,0,-4,59156
1340620315,6472,30.2500000000000000,10.2356996536254880,34.7061996459960940,354.0551147460937500,480.4374084472656000,10.4264497756958000,29.8866405487060550,116,3,1253,541,68,2148079313,2148185037,2149951793,2149524219,2498,2,-4,63407
1340620377,6471,27.2500000000000000,10.9015998840332030,34.7103996276855500,360.0725097656250000,465.8151855468750000,10.8795604705810550,29.4880104064941400,135,3,1081,599,66,2148434724,2148761728,2151332000,2150114687,1722,0,-6,20211
1340620441,6471,24.6000003814697270,11.5444002151489260,34.7188987731933600,361.1950073242187500,446.9031066894531000,11.4636802673339840,29.1836109161376950,85,3,669,595,66,2148815954,2149308506,2152504123,2150636100,2421,0,-6,1739
1340620503,6470,22.7700004577636720,11.9688997268676760,34.7246017456054700,359.2677001953125000,433.5086975097656000,11.8761501312255860,29.0533199310302730,79,3,487,540,64,2149180662,2149795597,2153436429,2151083643,2321,0,-4,37573
1340620593,6471,19.7199993133544920,12.1513004302978520,34.7253990173339840,357.9808959960937500,425.1820983886719000,12.1320800781250000,28.9763298034667970,90,3,527,627,64,2150492799,2151493992,2156485837,2152543716,1807,0,-4,43196
1340620655,6470,16.3400001525878900,12.3732995986938480,34.7252998352050800,356.4859924316406000,418.1184997558594000,12.3489198684692380,28.9237899780273440,96,3,597,614,62,2153447648,2155200109,2162453814,2155398244,904,2,-6,17375
1340620719,6471,12.8699998855590820,12.7889003753662110,34.7254981994628900,351.8973083496094000,404.6853942871094000,12.7606096267700200,28.8794898986816400,93,3,533,580,60,2158506770,2161269188,2170973704,2159649421,818,0,-7,6426
1340620781,6469,10.0100002288818360,12.8690996170043950,34.7274017333984400,349.8114929199219000,401.3315124511719000,12.8632698059082030,28.8980998992919920,94,3,476,525,62,2166022189,2169844314,2181819625,2165470865,101,-1,0,38868
1340620846,6468,7.0199999809265140,12.8836002349853520,34.7276000976562500,349.2362976074219000,400.6129150390625000,12.8852596282958980,28.9062900543212900,97,3,437,550,61,2178364451,2183105737,2196562664,2174553590,861,-13,-1,15072
1340620898,6470,5.1100001335144040,12.8856000900268550,34.7282981872558600,348.9955139160156000,400.4830017089844000,12.8892297744750980,28.9119300842285160,94,3,391,544,62,2189625179,2195016054,2209114221,2183371035,3233,6,-3,58432
1340620945,6470,3.4600000381469727,12.8881998062133790,34.7282981872558600,348.9791870117187500,400.4212951660156000,12.8911199569702150,28.9116401672363280,97,3,316,528,61,2202368630,2207925302,2221641394,2194160378,2516,8,-9,13605
1340621011,6470,2.4100000858306885,0.0000000000000000,0.0000000000000000,349.1010131835937500,400.4389953613281000,12.8905801773071290,28.9080696105957030,94,3,309,499,61,2213755789,2219520954,2232648730,2204750211,424,-6,-9,22187
1340621064,6467,0.8199999928474426,0.0000000000000000,0.0000000000000000,349.1857910156250000,400.3947143554687500,12.8919401168823240,28.9047908782959000,118,3,284,518,61,2235992534,2241300031,2251522440,2230970655,3292,10,21,38813
